Location: DARK SKY Beskydy - Park tmavé oblohy, www.darkskybeskydy.cz
(49.4926°N, 18.5016°E)
Time: 04:42:51
(UTC+02:00)

TIGRISAT - Pass Details

Date: 09 August 2024
Orbit: 591 x 667 km, 97.7° (Epoch: 19 September)

Event Time Altitude Azimuth Distance (km) Brightness Sun altitude
Rises 04:46:45 0° 178° (S) 2,935 ? -6.8°
Reaches altitude 10° 04:49:02 10° 184° (S) 2,018 ? -6.5°
Maximum altitude 04:53:18 51° 260° (W) 795 ? -5.9°
Drops below altitude 10° 04:57:31 10° 337° (NNW) 1,987 ? -5.3°
Sets 04:59:45 0° 343° (NNW) 2,885 ? -5.0°
